Weather History for Scottsbluff, NE

Change the Weather History Date:

Saturday, December 31, 2005

  Actual Average Record
Temperature  
Mean Temperature 42 °F 26 °F  
Max Temperature 62 °F 40 °F 67 °F (1904)
Min Temperature 21 °F 12 °F -30 °F (1923)
Degree Days  
Heating Degree Days 23 39  
Month to date heating degree days 1176 1208  
Since 1 July heating degree days 2524 2772  
Cooling Degree Days 0 0  
Month to date cooling degree days 0 0  
Year to date cooling degree days 740 724  
Moisture  
Dew Point 25 °F    
Average Humidity 55    
Maximum Humidity 77    
Minimum Humidity 32    
Precipitation  
Precipitation 0.00 in 0.02 in 0.90 in (1975)
Month to date precipitation 0.14 0.51  
Year to date precipitation 19.68 15.79  
Snow  
Snow 0.00 in 0.20 in 10.90 in (1975)
Month to date snowfall 3.4 7.1  
Since 1 July snowfall 4.1 16.0  
Snow Depth 0.00 in    
Sea Level Pressure  
Sea Level Pressure 29.52 in    
Wind  
Wind Speed 8 mph (ENE)    
Max Wind Speed 23 mph    
Max Gust Speed 29 mph    
Visibility 10 miles    
Events      
T = Trace of Precipitation, MM = Missing Value Source: NWS Daily Summary

Daily Weather History Graph

Daily Weather History Graph

Search for Another Location

Airport:

Trip Planner

Search our weather history database for the weather conditions in past years. The results will help you decide how hot, cold, wet, or windy it might be!

Date:

Astronomy

Dec. 31, 2005 Rise Set
Actual Time 7:22 AM MST 4:33 PM MST
Civil Twilight 6:50 AM MST 5:04 PM MST
Nautical Twilight 6:15 AM MST 5:39 PM MST
Astronomical Twilight 5:41 AM MST 6:13 PM MST
Moon 8:21 AM MST (12/31) 5:06 PM MST (12/31)
Length of Visible Light 10h 14m
Length of Day
9h 11m
New Moon, 1% of the Moon is Illuminated
Dec 31
New Moon
Jan 6
First Quarter
Jan 14
Full
Jan 22
Last Quarter
Jan 29
New

Hourly Weather History & Observations

Time (MST) Temp. Windchill Dew Point Humidity Pressure Visibility Wind Dir Wind Speed Gust Speed Precip Events Conditions
12:54 AM 25.0 °F 16.3 °F 17.1 °F 72% 29.65 in 10.0 mi ESE 8.1 mph - N/A   Mostly Cloudy
1:54 AM 24.1 °F 14.4 °F 16.0 °F 71% 29.62 in 10.0 mi ESE 9.2 mph - N/A   Clear
2:54 AM 25.0 °F 17.1 °F 16.0 °F 69% 29.60 in 10.0 mi ESE 6.9 mph - N/A   Clear
3:54 AM 26.1 °F 16.8 °F 16.0 °F 66% 29.59 in 10.0 mi ESE 9.2 mph - N/A   Clear
4:54 AM 27.0 °F 19.5 °F 17.1 °F 66% 29.60 in 10.0 mi East 6.9 mph - N/A   Clear
5:54 AM 26.1 °F 21.9 °F 16.0 °F 66% 29.62 in 10.0 mi ENE 3.5 mph - N/A   Clear
6:54 AM 21.0 °F 16.2 °F 15.1 °F 78% 29.65 in 10.0 mi NNW 3.5 mph - N/A   Clear
7:54 AM 24.1 °F - 16.0 °F 71% 29.63 in 10.0 mi Calm Calm - N/A   Clear
8:54 AM 43.0 °F 38.2 °F 27.0 °F 53% 29.58 in 10.0 mi West 8.1 mph - N/A   Clear
9:54 AM 55.0 °F - 32.0 °F 42% 29.53 in 10.0 mi West 17.3 mph 26.5 mph N/A   Clear
10:54 AM 57.9 °F - 32.0 °F 37% 29.53 in 10.0 mi WNW 11.5 mph - N/A   Clear
11:54 AM 59.0 °F - 30.9 °F 35% 29.49 in 10.0 mi West 15.0 mph 23.0 mph N/A   Clear
12:54 PM 62.1 °F - 32.0 °F 32% 29.46 in 10.0 mi West 15.0 mph 20.7 mph N/A   Clear
1:54 PM 61.0 °F - 30.9 °F 32% 29.47 in 10.0 mi WNW 18.4 mph 25.3 mph N/A   Clear
2:54 PM 59.0 °F - 30.9 °F 35% 29.47 in 10.0 mi West 8.1 mph - N/A   Clear
3:54 PM 52.0 °F - 30.0 °F 43% 29.50 in 10.0 mi NW 8.1 mph - N/A   Clear
4:54 PM 46.0 °F 44.8 °F 28.9 °F 51% 29.52 in 10.0 mi SE 3.5 mph - N/A   Clear
5:54 PM 44.1 °F - 27.0 °F 51% 29.52 in 10.0 mi Calm Calm - N/A   Clear
6:54 PM 44.1 °F - 28.9 °F 55% 29.52 in 10.0 mi Calm Calm - N/A   Scattered Clouds
7:54 PM 42.1 °F 38.4 °F 28.9 °F 60% 29.49 in 10.0 mi East 5.8 mph - N/A   Partly Cloudy
8:54 PM 39.0 °F 34.0 °F 28.0 °F 65% 29.44 in 10.0 mi ENE 6.9 mph - N/A   Mostly Cloudy
9:54 PM 39.9 °F 36.7 °F 28.9 °F 65% 29.39 in 10.0 mi East 4.6 mph - N/A   Mostly Cloudy
10:54 PM 43.0 °F 39.5 °F 30.0 °F 60% 29.37 in 10.0 mi ESE 5.8 mph - N/A   Overcast
11:54 PM 39.9 °F 35.8 °F 28.9 °F 65% 29.35 in 10.0 mi NNE 5.8 mph - N/A   Overcast